Year,Month,Day,Hour,Minute,Value (Times are PST for temperature in C)
2009,04,24,00,00,6.30
2009,04,24,00,01,6.30
2009,04,24,00,02,6.30
2009,04,24,00,03,6.30
2009,04,24,00,04,6.30
2009,04,24,00,05,6.30
2009,04,24,00,06,6.30
2009,04,24,00,07,6.30
2009,04,24,00,08,6.30
2009,04,24,00,09,6.40
2009,04,24,00,10,6.50
2009,04,24,00,11,6.70
2009,04,24,00,12,6.80
2009,04,24,00,13,7.00
2009,04,24,00,14,7.10
2009,04,24,00,15,7.20
2009,04,24,00,16,7.30
2009,04,24,00,17,7.40
2009,04,24,00,18,7.50
2009,04,24,00,19,7.50
2009,04,24,00,20,7.60
2009,04,24,00,21,7.70
2009,04,24,00,22,7.70
2009,04,24,00,23,7.80
2009,04,24,00,24,7.80
2009,04,24,00,25,7.80
2009,04,24,00,26,7.80
2009,04,24,00,27,7.90
2009,04,24,00,28,7.90
2009,04,24,00,29,8.00
2009,04,24,00,30,8.00
2009,04,24,00,31,8.10
2009,04,24,00,32,8.10
2009,04,24,00,33,8.10
2009,04,24,00,34,8.10
2009,04,24,00,35,8.10
2009,04,24,00,36,8.10
2009,04,24,00,37,8.00
2009,04,24,00,38,8.00
2009,04,24,00,39,8.00
2009,04,24,00,40,8.00
2009,04,24,00,41,8.00
2009,04,24,00,42,7.90
2009,04,24,00,43,7.90
2009,04,24,00,44,7.90
2009,04,24,00,45,7.90
2009,04,24,00,46,7.80
2009,04,24,00,47,7.80
2009,04,24,00,48,7.80
2009,04,24,00,49,7.80
2009,04,24,00,50,7.80
2009,04,24,00,51,7.80
2009,04,24,00,52,7.80
2009,04,24,00,53,7.80
2009,04,24,00,54,7.70
2009,04,24,00,55,7.70
2009,04,24,00,56,7.70
2009,04,24,00,57,7.70
2009,04,24,00,58,7.70
2009,04,24,00,59,7.70
2009,04,24,01,00,7.70
2009,04,24,01,01,7.80
2009,04,24,01,02,7.80
2009,04,24,01,03,7.80
2009,04,24,01,04,7.80
2009,04,24,01,05,7.80
2009,04,24,01,06,7.80
2009,04,24,01,07,7.80
2009,04,24,01,08,7.80
2009,04,24,01,09,7.80
2009,04,24,01,10,7.80
2009,04,24,01,11,7.80
2009,04,24,01,12,7.80
2009,04,24,01,13,7.80
2009,04,24,01,14,7.70
2009,04,24,01,15,7.70
2009,04,24,01,16,7.70
2009,04,24,01,17,7.70
2009,04,24,01,18,7.70
2009,04,24,01,19,7.70
2009,04,24,01,20,7.70
2009,04,24,01,21,7.60
2009,04,24,01,22,7.50
2009,04,24,01,23,7.40
2009,04,24,01,24,7.30
2009,04,24,01,25,7.20
2009,04,24,01,26,7.20
2009,04,24,01,27,7.10
2009,04,24,01,28,7.00
2009,04,24,01,29,6.90
2009,04,24,01,30,6.90
2009,04,24,01,31,6.80
2009,04,24,01,32,6.80
2009,04,24,01,33,6.70
2009,04,24,01,34,6.70
2009,04,24,01,35,6.60
2009,04,24,01,36,6.60
2009,04,24,01,37,6.50
2009,04,24,01,38,6.50
2009,04,24,01,39,6.40
2009,04,24,01,40,6.30
2009,04,24,01,41,6.30
2009,04,24,01,42,6.20
2009,04,24,01,43,6.20
2009,04,24,01,44,6.20
2009,04,24,01,45,6.10
2009,04,24,01,46,6.10
2009,04,24,01,47,6.10
2009,04,24,01,48,6.10
2009,04,24,01,49,6.00
2009,04,24,01,50,6.00
2009,04,24,01,51,6.00
2009,04,24,01,52,5.90
2009,04,24,01,53,5.90
2009,04,24,01,54,5.90
2009,04,24,01,55,5.90
2009,04,24,01,56,5.90
2009,04,24,01,57,5.90
2009,04,24,01,58,5.90
2009,04,24,01,59,5.90
2009,04,24,02,00,6.00
2009,04,24,02,01,6.00
2009,04,24,02,02,6.00
2009,04,24,02,03,6.10
2009,04,24,02,04,6.10
2009,04,24,02,05,6.10
2009,04,24,02,06,6.10
2009,04,24,02,07,6.10
2009,04,24,02,08,6.10
2009,04,24,02,09,6.10
2009,04,24,02,10,6.10
2009,04,24,02,11,6.10
2009,04,24,02,12,6.10
2009,04,24,02,13,6.10
2009,04,24,02,14,6.10
2009,04,24,02,15,6.00
2009,04,24,02,16,6.00
2009,04,24,02,17,6.00
2009,04,24,02,18,5.90
2009,04,24,02,19,5.90
2009,04,24,02,20,5.90
2009,04,24,02,21,5.90
2009,04,24,02,22,5.90
2009,04,24,02,23,5.80
2009,04,24,02,24,5.80
2009,04,24,02,25,5.80
2009,04,24,02,26,5.80
2009,04,24,02,27,5.80
2009,04,24,02,28,5.80
2009,04,24,02,29,5.80
2009,04,24,02,30,5.80
2009,04,24,02,31,5.70
2009,04,24,02,32,5.70
2009,04,24,02,33,5.70
2009,04,24,02,34,5.70
2009,04,24,02,35,5.70
2009,04,24,02,36,5.70
2009,04,24,02,37,5.70
2009,04,24,02,38,5.60
2009,04,24,02,39,5.60
2009,04,24,02,40,5.60
2009,04,24,02,41,5.60
2009,04,24,02,42,5.60
2009,04,24,02,43,5.60
2009,04,24,02,44,5.60
2009,04,24,02,45,5.50
2009,04,24,02,46,5.50
2009,04,24,02,47,5.50
2009,04,24,02,48,5.50
2009,04,24,02,49,5.50
2009,04,24,02,50,5.40
2009,04,24,02,51,5.40
2009,04,24,02,52,5.40
2009,04,24,02,53,5.30
2009,04,24,02,54,5.30
2009,04,24,02,55,5.30
2009,04,24,02,56,5.30
2009,04,24,02,57,5.30
2009,04,24,02,58,5.30
2009,04,24,02,59,5.30
2009,04,24,03,00,5.20
2009,04,24,03,01,5.20
2009,04,24,03,02,5.30
2009,04,24,03,03,5.30
2009,04,24,03,04,5.30
2009,04,24,03,05,5.30
2009,04,24,03,06,5.30
2009,04,24,03,07,5.40
2009,04,24,03,08,5.40
2009,04,24,03,09,5.40
2009,04,24,03,10,5.40
2009,04,24,03,11,5.40
2009,04,24,03,12,5.30
2009,04,24,03,13,5.30
2009,04,24,03,14,5.30
2009,04,24,03,15,5.20
2009,04,24,03,16,5.20
2009,04,24,03,17,5.20
2009,04,24,03,18,5.20
2009,04,24,03,19,5.20
2009,04,24,03,20,5.20
2009,04,24,03,21,5.20
2009,04,24,03,22,5.20
2009,04,24,03,23,5.30
2009,04,24,03,24,5.30
2009,04,24,03,25,5.30
2009,04,24,03,26,5.30
2009,04,24,03,27,5.30
2009,04,24,03,28,5.30
2009,04,24,03,29,5.30
2009,04,24,03,30,5.30
2009,04,24,03,31,5.30
2009,04,24,03,32,5.30
2009,04,24,03,33,5.20
2009,04,24,03,34,5.20
2009,04,24,03,35,5.20
2009,04,24,03,36,5.20
2009,04,24,03,37,5.20
2009,04,24,03,38,5.20
2009,04,24,03,39,5.20
2009,04,24,03,40,5.30
2009,04,24,03,41,5.30
2009,04,24,03,42,5.30
2009,04,24,03,43,5.20
2009,04,24,03,44,5.30
2009,04,24,03,45,5.20
2009,04,24,03,46,5.20
2009,04,24,03,47,5.30
2009,04,24,03,48,5.20
2009,04,24,03,49,5.20
2009,04,24,03,50,5.20
2009,04,24,03,51,5.20
2009,04,24,03,52,5.20
2009,04,24,03,53,5.20
2009,04,24,03,54,5.20
2009,04,24,03,55,5.20
2009,04,24,03,56,5.20
2009,04,24,03,57,5.20
2009,04,24,03,58,5.20
2009,04,24,03,59,5.20
2009,04,24,04,00,5.20
2009,04,24,04,01,5.20
2009,04,24,04,02,5.20
2009,04,24,04,03,5.10
2009,04,24,04,04,5.10
2009,04,24,04,05,5.10
2009,04,24,04,06,5.10
2009,04,24,04,07,5.10
2009,04,24,04,08,5.10
2009,04,24,04,09,5.10
2009,04,24,04,10,5.10
2009,04,24,04,11,5.10
2009,04,24,04,12,5.10
2009,04,24,04,13,5.10
2009,04,24,04,14,5.10
2009,04,24,04,15,5.10
2009,04,24,04,16,5.10
2009,04,24,04,17,5.10
2009,04,24,04,18,5.10
2009,04,24,04,19,5.10
2009,04,24,04,20,5.10
2009,04,24,04,21,5.10
2009,04,24,04,22,5.00
2009,04,24,04,23,5.00
2009,04,24,04,24,5.00
2009,04,24,04,25,4.90
2009,04,24,04,26,4.90
2009,04,24,04,27,4.90
2009,04,24,04,28,4.90
2009,04,24,04,29,4.80
2009,04,24,04,30,4.80
2009,04,24,04,31,4.80
2009,04,24,04,32,4.80
2009,04,24,04,33,4.80
2009,04,24,04,34,4.70
2009,04,24,04,35,4.70
2009,04,24,04,36,4.70
2009,04,24,04,37,4.70
2009,04,24,04,38,4.70
2009,04,24,04,39,4.70
2009,04,24,04,40,4.60
2009,04,24,04,41,4.60
2009,04,24,04,42,4.60
2009,04,24,04,43,4.60
2009,04,24,04,44,4.60
2009,04,24,04,45,4.60
2009,04,24,04,46,4.60
2009,04,24,04,47,4.50
2009,04,24,04,48,4.50
2009,04,24,04,49,4.50
2009,04,24,04,50,4.50
2009,04,24,04,51,4.50
2009,04,24,04,52,4.50
2009,04,24,04,53,4.50
2009,04,24,04,54,4.50
2009,04,24,04,55,4.50
2009,04,24,04,56,4.60
2009,04,24,04,57,4.60
2009,04,24,04,58,4.60
2009,04,24,04,59,4.60
2009,04,24,05,00,4.70
2009,04,24,05,01,4.70
2009,04,24,05,02,4.70
2009,04,24,05,03,4.70
2009,04,24,05,04,4.70
2009,04,24,05,05,4.70
2009,04,24,05,06,4.70
2009,04,24,05,07,4.60
2009,04,24,05,08,4.60
2009,04,24,05,09,4.60
2009,04,24,05,10,4.50
2009,04,24,05,11,4.50
2009,04,24,05,12,4.40
2009,04,24,05,13,4.40
2009,04,24,05,14,4.30
2009,04,24,05,15,4.30
2009,04,24,05,16,4.20
2009,04,24,05,17,4.20
2009,04,24,05,18,4.10
2009,04,24,05,19,4.10
2009,04,24,05,20,4.10
2009,04,24,05,21,4.10
2009,04,24,05,22,4.10
2009,04,24,05,23,4.10
2009,04,24,05,24,4.10
2009,04,24,05,25,4.10
2009,04,24,05,26,4.10
2009,04,24,05,27,4.10
2009,04,24,05,28,4.10
2009,04,24,05,29,4.10
2009,04,24,05,30,4.10
2009,04,24,05,31,4.10
2009,04,24,05,32,4.10
2009,04,24,05,33,4.10
2009,04,24,05,34,4.10
2009,04,24,05,35,4.10
2009,04,24,05,36,4.10
2009,04,24,05,37,4.10
2009,04,24,05,38,4.10
2009,04,24,05,39,4.10
2009,04,24,05,40,4.10
2009,04,24,05,41,4.10
2009,04,24,05,42,4.00
2009,04,24,05,43,4.00
2009,04,24,05,44,4.00
2009,04,24,05,45,3.90
2009,04,24,05,46,3.90
2009,04,24,05,47,3.80
2009,04,24,05,48,3.80
2009,04,24,05,49,3.70
2009,04,24,05,50,3.60
2009,04,24,05,51,3.60
2009,04,24,05,52,3.50
2009,04,24,05,53,3.40
2009,04,24,05,54,3.40
2009,04,24,05,55,3.30
2009,04,24,05,56,3.30
2009,04,24,05,57,3.30
2009,04,24,05,58,3.20
2009,04,24,05,59,3.20
2009,04,24,06,00,3.10
2009,04,24,06,01,3.10
2009,04,24,06,02,3.10
2009,04,24,06,03,3.10
2009,04,24,06,04,3.10
2009,04,24,06,05,3.10
2009,04,24,06,06,3.10
2009,04,24,06,07,3.20
2009,04,24,06,08,3.20
2009,04,24,06,09,3.30
2009,04,24,06,10,3.40
2009,04,24,06,11,3.40
2009,04,24,06,12,3.40
2009,04,24,06,13,3.50
2009,04,24,06,14,3.50
2009,04,24,06,15,3.50
2009,04,24,06,16,3.50
2009,04,24,06,17,3.50
2009,04,24,06,18,3.50
2009,04,24,06,19,3.50
2009,04,24,06,20,3.50
2009,04,24,06,21,3.50
2009,04,24,06,22,3.50
2009,04,24,06,23,3.50
2009,04,24,06,24,3.50
2009,04,24,06,25,3.50
2009,04,24,06,26,3.50
2009,04,24,06,27,3.50
2009,04,24,06,28,3.40
2009,04,24,06,29,3.40
2009,04,24,06,30,3.40
2009,04,24,06,31,3.40
2009,04,24,06,32,3.30
2009,04,24,06,33,3.30
2009,04,24,06,34,3.30
2009,04,24,06,35,3.30
2009,04,24,06,36,3.30
2009,04,24,06,37,3.30
2009,04,24,06,38,3.20
2009,04,24,06,39,3.20
2009,04,24,06,40,3.20
2009,04,24,06,41,3.20
2009,04,24,06,42,3.20
2009,04,24,06,43,3.30
2009,04,24,06,44,3.30
2009,04,24,06,45,3.40
2009,04,24,06,46,3.40
2009,04,24,06,47,3.50
2009,04,24,06,48,3.60
2009,04,24,06,49,3.70
2009,04,24,06,50,3.80
2009,04,24,06,51,3.90
2009,04,24,06,52,4.00
2009,04,24,06,53,4.00
2009,04,24,06,54,4.10
2009,04,24,06,55,4.20
2009,04,24,06,56,4.20
2009,04,24,06,57,4.30
2009,04,24,06,58,4.40
2009,04,24,06,59,4.50
2009,04,24,07,00,4.60
2009,04,24,07,01,4.70
2009,04,24,07,02,4.80
2009,04,24,07,03,5.00
2009,04,24,07,04,5.10
2009,04,24,07,05,5.20
2009,04,24,07,06,5.40
2009,04,24,07,07,5.50
2009,04,24,07,08,5.60
2009,04,24,07,09,5.70
2009,04,24,07,10,5.70
2009,04,24,07,11,5.80
2009,04,24,07,12,5.80
2009,04,24,07,13,5.90
2009,04,24,07,14,5.90
2009,04,24,07,15,6.00
2009,04,24,07,16,6.00
2009,04,24,07,17,6.10
2009,04,24,07,18,6.10
2009,04,24,07,19,6.10
2009,04,24,07,20,6.20
2009,04,24,07,21,6.30
2009,04,24,07,22,6.30
2009,04,24,07,23,6.40
2009,04,24,07,24,6.40
2009,04,24,07,25,6.50
2009,04,24,07,26,6.50
2009,04,24,07,27,6.50
2009,04,24,07,28,6.60
2009,04,24,07,29,6.60
2009,04,24,07,30,6.70
2009,04,24,07,31,6.80
2009,04,24,07,32,6.80
2009,04,24,07,33,6.90
2009,04,24,07,34,7.00
2009,04,24,07,35,7.10
2009,04,24,07,36,7.20
2009,04,24,07,37,7.30
2009,04,24,07,38,7.30
2009,04,24,07,39,7.40
2009,04,24,07,40,7.50
2009,04,24,07,41,7.50
2009,04,24,07,42,7.60
2009,04,24,07,43,7.70
2009,04,24,07,44,7.70
2009,04,24,07,45,7.70
2009,04,24,07,46,7.70
2009,04,24,07,47,7.70
2009,04,24,07,48,7.60
2009,04,24,07,49,7.60
2009,04,24,07,50,7.60
2009,04,24,07,51,7.70
2009,04,24,07,52,7.70
2009,04,24,07,53,7.70
2009,04,24,07,54,7.80
2009,04,24,07,55,7.80
2009,04,24,07,56,7.80
2009,04,24,07,57,7.80
2009,04,24,07,58,7.80
2009,04,24,07,59,7.80
2009,04,24,08,00,7.80
2009,04,24,08,01,7.80
2009,04,24,08,02,7.80
2009,04,24,08,03,7.80
2009,04,24,08,04,7.80
2009,04,24,08,05,7.70
2009,04,24,08,06,7.70
2009,04,24,08,07,7.60
2009,04,24,08,08,7.60
2009,04,24,08,09,7.60
2009,04,24,08,10,7.60
2009,04,24,08,11,7.60
2009,04,24,08,12,7.60
2009,04,24,08,13,7.60
2009,04,24,08,14,7.60
2009,04,24,08,15,7.70
2009,04,24,08,16,7.70
2009,04,24,08,17,7.70
2009,04,24,08,18,7.70
2009,04,24,08,19,7.70
2009,04,24,08,20,7.70
2009,04,24,08,21,7.70
2009,04,24,08,22,7.70
2009,04,24,08,23,7.70
2009,04,24,08,24,7.80
2009,04,24,08,25,7.80
2009,04,24,08,26,7.80
2009,04,24,08,27,7.90
2009,04,24,08,28,8.00
2009,04,24,08,29,8.00
2009,04,24,08,30,8.10
2009,04,24,08,31,8.10
2009,04,24,08,32,8.00
2009,04,24,08,33,8.00
2009,04,24,08,34,8.00
2009,04,24,08,35,8.00
2009,04,24,08,36,7.90
2009,04,24,08,37,7.90
2009,04,24,08,38,7.90
2009,04,24,08,39,8.00
2009,04,24,08,40,8.00
2009,04,24,08,41,8.10
2009,04,24,08,42,8.20
2009,04,24,08,43,8.20
2009,04,24,08,44,8.20
2009,04,24,08,45,8.20
2009,04,24,08,46,8.20
2009,04,24,08,47,8.20
2009,04,24,08,48,8.20
2009,04,24,08,49,8.20
2009,04,24,08,50,8.10
2009,04,24,08,51,8.10
2009,04,24,08,52,8.20
2009,04,24,08,53,8.10
2009,04,24,08,54,8.10
2009,04,24,08,55,8.10
2009,04,24,08,56,8.00
2009,04,24,08,57,8.00
2009,04,24,08,58,8.00
2009,04,24,08,59,7.90
2009,04,24,09,00,7.90
2009,04,24,09,01,7.90
2009,04,24,09,02,7.90
2009,04,24,09,03,8.00
2009,04,24,09,04,8.00
2009,04,24,09,05,8.10
2009,04,24,09,06,8.20
2009,04,24,09,07,8.20
2009,04,24,09,08,8.30
2009,04,24,09,09,8.30
2009,04,24,09,10,8.30
2009,04,24,09,11,8.30
2009,04,24,09,12,8.30
2009,04,24,09,13,8.40
2009,04,24,09,14,8.40
2009,04,24,09,15,8.50
2009,04,24,09,16,8.50
2009,04,24,09,17,8.50
2009,04,24,09,18,8.50
2009,04,24,09,19,8.50
2009,04,24,09,20,8.50
2009,04,24,09,21,8.40
2009,04,24,09,22,8.30
2009,04,24,09,23,8.30
2009,04,24,09,24,8.20
2009,04,24,09,25,8.10
2009,04,24,09,26,8.10
2009,04,24,09,27,8.00
2009,04,24,09,28,8.00
2009,04,24,09,29,7.90
2009,04,24,09,30,7.90
2009,04,24,09,31,7.90
2009,04,24,09,32,7.90
2009,04,24,09,33,7.90
2009,04,24,09,34,7.90
2009,04,24,09,35,7.90
2009,04,24,09,36,7.90
2009,04,24,09,37,8.00
2009,04,24,09,38,8.00
2009,04,24,09,39,8.00
2009,04,24,09,40,8.00
2009,04,24,09,41,8.00
2009,04,24,09,42,8.00
2009,04,24,09,43,7.90
2009,04,24,09,44,7.90
2009,04,24,09,45,7.90
2009,04,24,09,46,7.90
2009,04,24,09,47,7.90
2009,04,24,09,48,7.90
2009,04,24,09,49,7.90
2009,04,24,09,50,8.00
2009,04,24,09,51,8.00
2009,04,24,09,52,8.00
2009,04,24,09,53,8.00
2009,04,24,09,54,8.00
2009,04,24,09,55,8.00
2009,04,24,09,56,7.90
2009,04,24,09,57,7.80
2009,04,24,09,58,7.70
2009,04,24,09,59,7.60
2009,04,24,10,00,7.60
2009,04,24,10,01,7.70
2009,04,24,10,02,7.80
2009,04,24,10,03,7.90
2009,04,24,10,04,8.20
2009,04,24,10,05,8.30
2009,04,24,10,06,8.40
2009,04,24,10,07,8.30
2009,04,24,10,08,8.30
2009,04,24,10,09,8.20
2009,04,24,10,10,8.20
2009,04,24,10,11,8.30
2009,04,24,10,12,8.30
2009,04,24,10,13,8.40
2009,04,24,10,14,8.50
2009,04,24,10,15,8.60
2009,04,24,10,16,8.60
2009,04,24,10,17,8.60
2009,04,24,10,18,8.50
2009,04,24,10,19,8.40
2009,04,24,10,20,8.40
2009,04,24,10,21,8.30
2009,04,24,10,22,8.40
2009,04,24,10,23,8.50
2009,04,24,10,24,8.50
2009,04,24,10,25,8.60
2009,04,24,10,26,8.60
2009,04,24,10,27,8.80
2009,04,24,10,28,8.90
2009,04,24,10,29,8.90
2009,04,24,10,30,8.90
2009,04,24,10,31,8.90
2009,04,24,10,32,8.90
2009,04,24,10,33,8.90
2009,04,24,10,34,8.90
2009,04,24,10,35,8.90
2009,04,24,10,36,9.00
2009,04,24,10,37,9.10
2009,04,24,10,38,9.30
2009,04,24,10,39,9.30
2009,04,24,10,40,9.30
2009,04,24,10,41,9.40
2009,04,24,10,42,9.50
2009,04,24,10,43,9.60
2009,04,24,10,44,9.60
2009,04,24,10,45,9.50
2009,04,24,10,46,9.50
2009,04,24,10,47,9.40
2009,04,24,10,48,9.30
2009,04,24,10,49,9.20
2009,04,24,10,50,9.10
2009,04,24,10,51,9.10
2009,04,24,10,52,9.20
2009,04,24,10,53,9.30
2009,04,24,10,54,9.30
2009,04,24,10,55,9.20
2009,04,24,10,56,9.20
2009,04,24,10,57,9.30
2009,04,24,10,58,9.30
2009,04,24,10,59,9.40
2009,04,24,11,00,9.40
2009,04,24,11,01,9.40
2009,04,24,11,02,9.40
2009,04,24,11,03,9.40
2009,04,24,11,04,9.40
2009,04,24,11,05,9.50
2009,04,24,11,06,9.60
2009,04,24,11,07,9.70
2009,04,24,11,08,9.80
2009,04,24,11,09,10.00
2009,04,24,11,10,10.00
2009,04,24,11,11,10.20
2009,04,24,11,12,10.30
2009,04,24,11,13,10.40
2009,04,24,11,14,10.40
2009,04,24,11,15,10.50
2009,04,24,11,16,10.60
2009,04,24,11,17,10.60
2009,04,24,11,18,10.60
2009,04,24,11,19,10.50
2009,04,24,11,20,10.40
2009,04,24,11,21,10.30
2009,04,24,11,22,10.30
2009,04,24,11,23,10.30
2009,04,24,11,24,10.30
2009,04,24,11,25,10.30
2009,04,24,11,26,10.10
2009,04,24,11,27,10.10
2009,04,24,11,28,10.10
2009,04,24,11,29,10.10
2009,04,24,11,30,10.10
2009,04,24,11,31,10.10
2009,04,24,11,32,10.30
2009,04,24,11,33,10.30
2009,04,24,11,34,10.20
2009,04,24,11,35,10.30
2009,04,24,11,36,10.30
2009,04,24,11,37,10.30
2009,04,24,11,38,10.40
2009,04,24,11,39,10.30
2009,04,24,11,40,10.20
2009,04,24,11,41,10.10
2009,04,24,11,42,10.10
2009,04,24,11,43,10.00
2009,04,24,11,44,10.00
2009,04,24,11,45,9.80
2009,04,24,11,46,9.80
2009,04,24,11,47,9.80
2009,04,24,11,48,9.90
2009,04,24,11,49,10.00
2009,04,24,11,50,10.00
2009,04,24,11,51,10.00
2009,04,24,11,52,10.10
2009,04,24,11,53,10.10
2009,04,24,11,54,10.20
2009,04,24,11,55,10.20
2009,04,24,11,56,10.10
2009,04,24,11,57,10.00
2009,04,24,11,58,10.00
2009,04,24,11,59,10.10
2009,04,24,12,00,10.20
2009,04,24,12,01,10.30
2009,04,24,12,02,10.30
2009,04,24,12,03,10.40
2009,04,24,12,04,10.40
2009,04,24,12,05,10.50
2009,04,24,12,06,10.50
2009,04,24,12,07,10.60
2009,04,24,12,08,10.70
2009,04,24,12,09,10.80
2009,04,24,12,10,10.80
2009,04,24,12,11,10.90
2009,04,24,12,12,10.90
2009,04,24,12,13,10.90
2009,04,24,12,14,10.80
2009,04,24,12,15,10.70
2009,04,24,12,16,10.70
2009,04,24,12,17,10.70
2009,04,24,12,18,10.70
2009,04,24,12,19,10.70
2009,04,24,12,20,10.60
2009,04,24,12,21,10.60
2009,04,24,12,22,10.60
2009,04,24,12,23,10.60
2009,04,24,12,24,10.50
2009,04,24,12,25,10.40
2009,04,24,12,26,10.40
2009,04,24,12,27,10.30
2009,04,24,12,28,10.40
2009,04,24,12,29,10.40
2009,04,24,12,30,10.40
2009,04,24,12,31,10.50
2009,04,24,12,32,10.50
2009,04,24,12,33,10.60
2009,04,24,12,34,10.60
2009,04,24,12,35,10.60
2009,04,24,12,36,10.50
2009,04,24,12,37,10.40
2009,04,24,12,38,10.30
2009,04,24,12,39,10.30
2009,04,24,12,40,10.30
2009,04,24,12,41,10.40
2009,04,24,12,42,10.50
2009,04,24,12,43,10.50
2009,04,24,12,44,10.50
2009,04,24,12,45,10.50
2009,04,24,12,46,10.50
2009,04,24,12,47,10.50
2009,04,24,12,48,10.40
2009,04,24,12,49,10.30
2009,04,24,12,50,10.30
2009,04,24,12,51,10.30
2009,04,24,12,52,10.30
2009,04,24,12,53,10.30
2009,04,24,12,54,10.30
2009,04,24,12,55,10.20
2009,04,24,12,56,10.30
2009,04,24,12,57,10.30
2009,04,24,12,58,10.40
2009,04,24,12,59,10.40
2009,04,24,13,00,10.50
2009,04,24,13,01,10.60
2009,04,24,13,02,10.60
2009,04,24,13,03,10.60
2009,04,24,13,04,10.70
2009,04,24,13,05,10.80
2009,04,24,13,06,10.90
2009,04,24,13,07,10.80
2009,04,24,13,08,10.70
2009,04,24,13,09,10.70
2009,04,24,13,10,10.70
2009,04,24,13,11,10.60
2009,04,24,13,12,10.60
2009,04,24,13,13,10.80
2009,04,24,13,14,10.90
2009,04,24,13,15,10.90
2009,04,24,13,16,10.90
2009,04,24,13,17,10.90
2009,04,24,13,18,10.90
2009,04,24,13,19,11.00
2009,04,24,13,20,10.90
2009,04,24,13,21,10.90
2009,04,24,13,22,11.00
2009,04,24,13,23,11.10
2009,04,24,13,24,11.30
2009,04,24,13,25,11.30
2009,04,24,13,26,11.40
2009,04,24,13,27,11.40
2009,04,24,13,28,11.40
2009,04,24,13,29,11.40
2009,04,24,13,30,11.30
2009,04,24,13,31,11.30
2009,04,24,13,32,11.40
2009,04,24,13,33,11.40
2009,04,24,13,34,11.40
2009,04,24,13,35,11.30
2009,04,24,13,36,11.30
2009,04,24,13,37,11.30
2009,04,24,13,38,11.30
2009,04,24,13,39,11.40
2009,04,24,13,40,11.50
2009,04,24,13,41,11.50
2009,04,24,13,42,11.60
2009,04,24,13,43,11.60
2009,04,24,13,44,11.60
2009,04,24,13,45,11.70
2009,04,24,13,46,11.70
2009,04,24,13,47,11.70
2009,04,24,13,48,11.70
2009,04,24,13,49,11.50
2009,04,24,13,50,11.50
2009,04,24,13,51,11.50
2009,04,24,13,52,11.60
2009,04,24,13,53,11.60
2009,04,24,13,54,11.60
2009,04,24,13,55,11.60
2009,04,24,13,56,11.60
2009,04,24,13,57,11.70
2009,04,24,13,58,11.80
2009,04,24,13,59,12.00
2009,04,24,14,00,12.20
2009,04,24,14,01,12.30
2009,04,24,14,02,12.50
2009,04,24,14,03,12.60
2009,04,24,14,04,12.60
2009,04,24,14,05,12.70
2009,04,24,14,06,12.70
2009,04,24,14,07,12.70
2009,04,24,14,08,12.70
2009,04,24,14,09,12.60
2009,04,24,14,10,12.40
2009,04,24,14,11,12.30
2009,04,24,14,12,12.20
2009,04,24,14,13,12.10
2009,04,24,14,14,12.10
2009,04,24,14,15,12.10
2009,04,24,14,16,12.20
2009,04,24,14,17,12.10
2009,04,24,14,18,12.00
2009,04,24,14,19,11.90
2009,04,24,14,20,11.80
2009,04,24,14,21,11.80
2009,04,24,14,22,11.80
2009,04,24,14,23,11.90
2009,04,24,14,24,11.90
2009,04,24,14,25,12.00
2009,04,24,14,26,12.00
2009,04,24,14,27,12.10
2009,04,24,14,28,12.20
2009,04,24,14,29,12.30
2009,04,24,14,30,12.40
2009,04,24,14,31,12.40
2009,04,24,14,32,12.40
2009,04,24,14,33,12.30
2009,04,24,14,34,12.40
2009,04,24,14,35,12.50
2009,04,24,14,36,12.60
2009,04,24,14,37,12.50
2009,04,24,14,38,12.40
2009,04,24,14,39,12.30
2009,04,24,14,40,12.20
2009,04,24,14,41,12.00
2009,04,24,14,42,11.90
2009,04,24,14,43,11.90
2009,04,24,14,44,11.80
2009,04,24,14,45,11.70
2009,04,24,14,46,11.80
2009,04,24,14,47,12.00
2009,04,24,14,48,12.10
2009,04,24,14,49,12.20
2009,04,24,14,50,12.30
2009,04,24,14,51,12.50
2009,04,24,14,52,12.60
2009,04,24,14,53,12.70
2009,04,24,14,54,12.70
2009,04,24,14,55,12.50
2009,04,24,14,56,12.40
2009,04,24,14,57,12.30
2009,04,24,14,58,12.20
2009,04,24,14,59,12.10
2009,04,24,15,00,12.10
2009,04,24,15,01,12.10
2009,04,24,15,02,12.00
2009,04,24,15,03,11.90
2009,04,24,15,04,11.90
2009,04,24,15,05,11.80
2009,04,24,15,06,11.80
2009,04,24,15,07,11.80
2009,04,24,15,08,11.90
2009,04,24,15,09,12.00
2009,04,24,15,10,12.00
2009,04,24,15,11,12.00
2009,04,24,15,12,12.00
2009,04,24,15,13,12.00
2009,04,24,15,14,11.90
2009,04,24,15,15,11.90
2009,04,24,15,16,12.00
2009,04,24,15,17,12.00
2009,04,24,15,18,12.10
2009,04,24,15,19,12.20
2009,04,24,15,20,12.30
2009,04,24,15,21,12.30
2009,04,24,15,22,12.50
2009,04,24,15,23,12.60
2009,04,24,15,24,12.60
2009,04,24,15,25,12.60
2009,04,24,15,26,12.60
2009,04,24,15,27,12.70
2009,04,24,15,28,12.70
2009,04,24,15,29,12.70
2009,04,24,15,30,12.60
2009,04,24,15,31,12.50
2009,04,24,15,32,12.40
2009,04,24,15,33,12.30
2009,04,24,15,34,12.30
2009,04,24,15,35,12.30
2009,04,24,15,36,12.30
2009,04,24,15,37,12.30
2009,04,24,15,38,12.40
2009,04,24,15,39,12.50
2009,04,24,15,40,12.60
2009,04,24,15,41,12.60
2009,04,24,15,42,12.70
2009,04,24,15,43,12.80
2009,04,24,15,44,12.90
2009,04,24,15,45,13.00
2009,04,24,15,46,13.00
2009,04,24,15,47,12.90
2009,04,24,15,48,12.80
2009,04,24,15,49,12.70
2009,04,24,15,50,12.50
2009,04,24,15,51,12.40
2009,04,24,15,52,12.40
2009,04,24,15,53,12.40
2009,04,24,15,54,12.50
2009,04,24,15,55,12.50
2009,04,24,15,56,12.40
2009,04,24,15,57,12.30
2009,04,24,15,58,12.40
2009,04,24,15,59,12.40
2009,04,24,16,00,12.40
2009,04,24,16,01,12.40
2009,04,24,16,02,12.40
2009,04,24,16,03,12.50
2009,04,24,16,04,12.60
2009,04,24,16,05,12.60
2009,04,24,16,06,12.50
2009,04,24,16,07,12.60
2009,04,24,16,08,12.60
2009,04,24,16,09,12.70
2009,04,24,16,10,12.70
2009,04,24,16,11,12.70
2009,04,24,16,12,12.60
2009,04,24,16,13,12.50
2009,04,24,16,14,12.40
2009,04,24,16,15,12.40
2009,04,24,16,16,12.40
2009,04,24,16,17,12.40
2009,04,24,16,18,12.40
2009,04,24,16,19,12.40
2009,04,24,16,20,12.30
2009,04,24,16,21,12.20
2009,04,24,16,22,12.10
2009,04,24,16,23,12.10
2009,04,24,16,24,12.00
2009,04,24,16,25,12.00
2009,04,24,16,26,12.00
2009,04,24,16,27,12.10
2009,04,24,16,28,12.10
2009,04,24,16,29,12.00
2009,04,24,16,30,12.00
2009,04,24,16,31,12.00
2009,04,24,16,32,12.10
2009,04,24,16,33,12.10
2009,04,24,16,34,12.10
2009,04,24,16,35,12.10
2009,04,24,16,36,12.10
2009,04,24,16,37,12.00
2009,04,24,16,38,12.00
2009,04,24,16,39,12.00
2009,04,24,16,40,12.20
2009,04,24,16,41,12.30
2009,04,24,16,42,12.30
2009,04,24,16,43,12.50
2009,04,24,16,44,12.50
2009,04,24,16,45,12.60
2009,04,24,16,46,12.60
2009,04,24,16,47,12.50
2009,04,24,16,48,12.50
2009,04,24,16,49,12.40
2009,04,24,16,50,12.40
2009,04,24,16,51,12.40
2009,04,24,16,52,12.40
2009,04,24,16,53,12.40
2009,04,24,16,54,12.40
2009,04,24,16,55,12.50
2009,04,24,16,56,12.50
2009,04,24,16,57,12.60
2009,04,24,16,58,12.70
2009,04,24,16,59,12.70
2009,04,24,17,00,12.60
2009,04,24,17,01,12.50
2009,04,24,17,02,12.40
2009,04,24,17,03,12.30
2009,04,24,17,04,12.30
2009,04,24,17,05,12.20
2009,04,24,17,06,12.20
2009,04,24,17,07,12.20
2009,04,24,17,08,12.30
2009,04,24,17,09,12.30
2009,04,24,17,10,12.40
2009,04,24,17,11,12.40
2009,04,24,17,12,12.50
2009,04,24,17,13,12.50
2009,04,24,17,14,12.40
2009,04,24,17,15,12.40
2009,04,24,17,16,12.30
2009,04,24,17,17,12.30
2009,04,24,17,18,12.30
2009,04,24,17,19,12.30
2009,04,24,17,20,12.30
2009,04,24,17,21,12.20
2009,04,24,17,22,12.20
2009,04,24,17,23,12.10
2009,04,24,17,24,12.10
2009,04,24,17,25,12.10
2009,04,24,17,26,12.20
2009,04,24,17,27,12.20
2009,04,24,17,28,12.20
2009,04,24,17,29,12.20
2009,04,24,17,30,12.20
2009,04,24,17,31,12.20
2009,04,24,17,32,12.20
2009,04,24,17,33,12.20
2009,04,24,17,34,12.30
2009,04,24,17,35,12.30
2009,04,24,17,36,12.30
2009,04,24,17,37,12.40
2009,04,24,17,38,12.50
2009,04,24,17,39,12.50
2009,04,24,17,40,12.40
2009,04,24,17,41,12.40
2009,04,24,17,42,12.40
2009,04,24,17,43,12.40
2009,04,24,17,44,12.30
2009,04,24,17,45,12.30
2009,04,24,17,46,12.30
2009,04,24,17,47,12.40
2009,04,24,17,48,12.40